[[{"header":{"parameterUnit":"m.s-1","parameterCategory":1,"la1":30.2991,"la2":30.254,"lo1":-89.0895,"lo2":-89.0444,"dx":0.0017,"dy":0.0017,"nx":28,"ny":28,"refTime":"2022-12-24T09:00:00:Z","depth":0,"parameterNumber":2,"parameterNumberName":"U-component_of_WINDS"},"data":[0,0,0,0,0,0,0,0,0,0,0,0,0,0,0,0,0,0,0,0,0,0,0,0,0,0,0,0,0,0,0,0,0,0,0,0,0,0,0,0,0,0,0,0,0,0,0,0,0,0,0,0,0,0,0,0,0,0,-0.7475,-0.7476,0,-0.7533,-0.7534,-0.7535,-0.7503,-0.7501,-0.7499,-0.7498,-0.7561,-0.7564,-0.7567,0,0,0,0,0,0,0,0,0,0,0,0,0,-0.7339,-0.7342,-0.7475,-0.7476,-0.7477,-0.7533,-0.7534,-0.7535,-0.7503,-0.7501,-0.7499,-0.7497,-0.756,-0.7563,-0.7567,0,0,0,0,0,0,0,0,0,0,0,0,0,-0.7398,-0.7343,-0.7475,-0.7467,-0.7467,-0.7533,-0.7534,-0.7535,-0.7503,-0.7501,-0.7498,-0.7496,-0.7558,-0.7563,-0.7568,-0.7646,0,0,-0.7582,-0.7584,0,0,0,0,0,0,0,0,-0.7395,-0.7403,-0.7468,-0.7468,-0.7468,-0.7508,-0.7509,-0.7572,-0.7504,-0.749,-0.7498,-0.7495,-0.7545,-0.7551,-0.7567,-0.7649,-0.7651,-0.7583,-0.7586,-0.7588,-0.7589,0,0,0,0,0,0,0,-0.7391,-0.74,-0.7498,-0.7469,-0.7469,-0.7462,-0.7468,-0.7521,-0.7531,-0.7491,-0.7489,-0.7496,-0.7545,-0.7563,-0.7569,-0.7652,-0.7583,-0.7587,-0.759,-0.7592,-0.7801,-0.7803,0,0,0,0,0,0,-0.7387,-0.7397,-0.7497,-0.75,-0.7425,-0.7466,-0.7473,-0.7498,-0.753,-0.7532,-0.7498,-0.7494,-0.7556,-0.7563,-0.7571,-0.7665,-0.7588,-0.7592,-0.7595,-0.7798,-0.7801,-0.7804,0,0,0,0,0,0,-0.7384,-0.7396,-0.7494,-0.7448,-0.746,-0.7471,-0.75,-0.75,-0.7518,-0.7535,-0.7537,-0.7514,-0.7554,-0.7564,-0.7627,-0.7667,-0.7594,-0.7599,-0.7795,-0.7799,-0.7803,-0.7853,0,0,0,0,0,0,-0.738,-0.7395,-0.7424,-0.7449,-0.7463,-0.7549,-0.7502,-0.7503,-0.7526,-0.7522,-0.7551,-0.7553,-0.7553,-0.762,-0.7632,-0.7672,-0.7602,-0.7791,-0.7797,-0.7801,-0.7848,-0.7859,-0.7868,0,0,0,0,0,-0.7375,-0.7437,-0.7426,-0.7438,-0.7499,-0.7551,-0.7559,-0.7557,-0.7529,-0.7559,-0.757,-0.7553,-0.766,-0.7627,-0.764,-0.7682,-0.7789,-0.7795,-0.7801,-0.7844,-0.7857,-0.7867,0,0,0,0,0,0,-0.7418,-0.744,-0.7428,-0.7499,-0.7523,-0.7546,-0.7584,-0.757,-0.7604,-0.7599,-0.7595,-0.7602,-0.7668,-0.768,-0.7644,-0.7759,-0.772,-0.7729,-0.7749,-0.7761,-0.777,-0.7767,-0.7606,0,0,0,0,0,-0.7435,-0.7475,-0.7492,-0.7553,-0.7566,-0.7573,-0.7595,-0.7591,-0.7617,-0.7627,-0.7642,-0.7669,-0.7708,-0.7735,-0.7772,-0.7849,-0.7856,-0.7884,-0.7894,-0.7902,-0.791,-0.7953,-0.7966,-0.7824,-0.7824,-0.7824,0,0,-0.7473,-0.7489,-0.7515,-0.7562,-0.7581,-0.7623,-0.7582,-0.7628,-0.766,-0.7634,-0.7695,-0.7707,-0.7736,-0.7807,-0.7839,-0.782,-0.7951,-0.7909,-0.7915,-0.792,-0.796,-0.7974,-0.7986,-0.7828,-0.7827,-0.7827,0,0,-0.7562,-0.7578,-0.7631,-0.765,-0.7677,-0.7681,-0.7694,-0.7718,-0.7725,-0.7785,-0.7767,-0.7805,-0.7873,-0.7894,-0.7914,-0.801,-0.7996,-0.8023,-0.8074,-0.8116,-0.8127,-0.8137,-0.8173,-0.8185,-0.803,-0.8031,-0.8031,0,-0.7605,-0.7667,-0.766,-0.7708,-0.773,-0.7707,-0.7761,-0.778,-0.7819,-0.7836,-0.7813,-0.7898,-0.7916,-0.7992,-0.8015,-0.8031,-0.8047,-0.8021,-0.8125,-0.8135,-0.8145,-0.8179,-0.8192,-0.8034,-0.8033,-0.8033,-0.8033,0,-0.7719,-0.7762,-0.7802,-0.7839,-0.7865,-0.7916,-0.7918,-0.7945,-0.7938,-0.7944,-0.8006,-0.8026,-0.8068,-0.8085,-0.8079,-0.816,-0.8148,-0.8125,-0.8087,-0.8162,-0.8194,-0.8207,-0.8038,-0.8037,-0.8036,-0.8035,0,0,-0.784,-0.7871,-0.7886,-0.7903,-0.7931,-0.7965,-0.8014,-0.8053,-0.8078,-0.8105,-0.8148,-0.8205,-0.8184,-0.8207,-0.8203,-0.8239,-0.8315,-0.8212,-0.8213,-0.8232,-0.8408,-0.8426,-0.8441,-0.8305,-0.8307,-0.8309,-0.8406,0,-0.7933,-0.8019,-0.8014,-0.8095,-0.8136,-0.8114,-0.8157,-0.818,-0.8186,-0.8222,-0.823,-0.8271,-0.824,-0.8254,-0.8288,-0.8299,-0.8351,-0.8291,-0.8346,-0.8348,-0.8342,-0.8458,-0.8477,-0.8568,-0.8418,-0.842,-0.8422,0,-0.8053,-0.8083,-0.8169,-0.8191,-0.8207,-0.8246,-0.8282,-0.8316,-0.8341,-0.8343,-0.8368,-0.8358,-0.8409,-0.8366,-0.8438,-0.8397,-0.8419,-0.8427,-0.8431,-0.8438,-0.8392,-0.847,-0.8596,-0.8611,-0.8441,-0.844,-0.8438,0,-0.8135,-0.8197,-0.8256,-0.827,-0.8297,-0.8325,-0.8338,-0.836,-0.8384,-0.8415,-0.8431,-0.8467,-0.8488,-0.8517,-0.8517,-0.8486,-0.859,-0.8548,-0.8595,-0.8595,-0.862,-0.8619,-0.8754,-0.863,-0.863,-0.863,-0.8629,0,-0.8241,-0.8294,-0.8293,-0.833,-0.8389,-0.8383,-0.8442,-0.8452,-0.8471,-0.851,-0.8493,-0.853,-0.8527,-0.8564,-0.8565,-0.8624,-0.8633,-0.8638,-0.8638,-0.8641,-0.8641,-0.8657,-0.8652,-0.8633,-0.8633,-0.8632,-0.8631,0,-0.8343,-0.8344,-0.8408,-0.8427,-0.8433,-0.8476,-0.8493,-0.8529,-0.8533,-0.8582,-0.8594,-0.8601,-0.8644,-0.8646,-0.8696,-0.8697,-0.877,-0.8762,-0.8762,-0.8761,-0.8809,-0.8805,-0.8961,-0.8982,-0.8843,-0.8844,-0.8845,0,-0.8412,-0.8453,-0.8476,-0.85,-0.8514,-0.8553,-0.8577,-0.8572,-0.8597,-0.8628,-0.866,-0.8701,-0.8734,-0.8805,-0.8815,-0.8854,-0.8848,-0.8899,-0.8853,-0.8855,-0.8851,-0.8849,-0.8854,-0.8909,-0.8911,-0.8912,-0.8913,0,-0.8535,-0.8533,-0.8567,-0.8602,-0.8631,-0.8658,-0.8683,-0.8704,-0.8702,-0.8732,-0.8775,-0.88,-0.8851,-0.8893,-0.893,-0.8943,-0.8929,-0.8927,-0.894,-0.8946,-0.8945,-0.8948,-0.8789,-0.8924,-0.8923,-0.8922,-0.8922,-0.8921,-0.8624,-0.8659,-0.8681,-0.872,-0.8738,-0.8762,-0.8796,-0.8804,-0.884,-0.888,-0.8874,-0.8923,-0.8946,-0.8994,-0.9011,-0.905,-0.9032,-0.9051,-0.9056,-0.9062,-0.9068,-0.8936,-0.9056,-0.9056,-0.9055,-0.9055,-0.9055,0,-0.8748,-0.876,-0.8796,-0.8831,-0.8862,-0.8843,-0.887,-0.8897,-0.894,-0.8963,-0.8995,-0.9045,-0.9085,-0.9098,-0.9137,-0.9165,-0.916,-0.9176,-0.9175,-0.9179,-0.908,-0.9066,-0.918,-0.918,-0.918,-0.918,-0.918,-0.918,-0.8816,-0.8875,-0.8875,-0.8943,-0.8955,-0.9002,-0.9019,-0.9041,-0.9059,-0.9116,-0.9148,-0.9156,-0.9175,-0.9215,-0.9251,-0.9254,-0.927,-0.929,-0.929,-0.9198,-0.9186,-0.9174,-0.916,-0.9292,-0.9293,-0.9386,-0.9386,-0.9387]},{"header":{"parameterUnit":"m.s-1","parameterCategory":1,"la1":30.2991,"la2":30.254,"lo1":-89.0895,"lo2":-89.0444,"dx":0.0017,"dy":0.0017,"nx":28,"ny":28,"refTime":"2022-12-24T09:00:00:Z","depth":0,"parameterNumber":3,"parameterNumberName":"V-component_of_WINDS"},"data":[0,0,0,0,0,0,0,0,0,0,0,0,0,0,0,0,0,0,0,0,0,0,0,0,0,0,0,0,0,0,0,0,0,0,0,0,0,0,0,0,0,0,0,0,0,0,0,0,0,0,0,0,0,0,0,0,0,0,-5.2168,-5.2169,0,-5.2252,-5.2253,-5.2254,-5.2183,-5.218,-5.2177,-5.2174,-5.2256,-5.2261,-5.2266,0,0,0,0,0,0,0,0,0,0,0,0,0,-5.1943,-5.1947,-5.2168,-5.2169,-5.217,-5.2252,-5.2253,-5.2254,-5.2183,-5.218,-5.2176,-5.2173,-5.2255,-5.226,-5.2266,0,0,0,0,0,0,0,0,0,0,0,0,0,-5.2035,-5.1949,-5.2168,-5.2145,-5.2144,-5.2252,-5.2253,-5.2255,-5.2184,-5.218,-5.2175,-5.2171,-5.2253,-5.226,-5.2267,-5.2401,0,0,-5.229,-5.2293,0,0,0,0,0,0,0,0,-5.203,-5.2043,-5.2147,-5.2147,-5.2146,-5.2203,-5.2204,-5.2304,-5.2185,-5.2169,-5.2174,-5.2169,-5.2242,-5.225,-5.2275,-5.2405,-5.2408,-5.229,-5.2295,-5.2298,-5.23,0,0,0,0,0,0,0,-5.2024,-5.2039,-5.2201,-5.2149,-5.2148,-5.2129,-5.2137,-5.2222,-5.2229,-5.217,-5.2165,-5.2176,-5.224,-5.2268,-5.2276,-5.241,-5.229,-5.2297,-5.2301,-5.2304,-5.2654,-5.2659,0,0,0,0,0,0,-5.202,-5.2035,-5.2198,-5.2204,-5.2076,-5.2137,-5.2146,-5.2189,-5.2228,-5.2229,-5.218,-5.2172,-5.2258,-5.2268,-5.2279,-5.2439,-5.2298,-5.2305,-5.2309,-5.2649,-5.2655,-5.266,0,0,0,0,0,0,-5.2016,-5.2035,-5.2195,-5.2118,-5.2137,-5.2145,-5.2194,-5.2193,-5.222,-5.2235,-5.2236,-5.2207,-5.2254,-5.2269,-5.2372,-5.2441,-5.2308,-5.2315,-5.2644,-5.2651,-5.2658,-5.2761,0,0,0,0,0,0,-5.2009,-5.2034,-5.2086,-5.212,-5.2141,-5.2288,-5.2198,-5.2197,-5.2234,-5.2225,-5.2261,-5.2263,-5.2252,-5.2361,-5.2379,-5.2449,-5.2321,-5.2637,-5.2647,-5.2655,-5.2751,-5.2771,-5.2787,0,0,0,0,0,-5.2002,-5.2111,-5.2089,-5.2109,-5.2207,-5.2292,-5.2304,-5.2291,-5.224,-5.2292,-5.2301,-5.2262,-5.243,-5.2372,-5.2392,-5.2465,-5.2633,-5.2644,-5.2655,-5.2743,-5.2767,-5.2787,0,0,0,0,0,0,-5.2083,-5.2115,-5.2091,-5.2214,-5.2252,-5.228,-5.2345,-5.2316,-5.2368,-5.2357,-5.2337,-5.2346,-5.2455,-5.247,-5.2404,-5.2597,-5.2523,-5.2539,-5.2584,-5.2606,-5.2624,-5.2619,-5.2327,0,0,0,0,0,-5.2116,-5.2184,-5.2207,-5.2314,-5.2334,-5.2337,-5.2373,-5.236,-5.2397,-5.2412,-5.2428,-5.2465,-5.2526,-5.2566,-5.2623,-5.2752,-5.2759,-5.2812,-5.283,-5.2845,-5.2859,-5.2929,-5.2953,-5.2696,-5.2696,-5.2696,0,0,-5.2184,-5.2209,-5.2253,-5.2331,-5.2358,-5.2428,-5.235,-5.2427,-5.2479,-5.2423,-5.2522,-5.2536,-5.2575,-5.2692,-5.2744,-5.2708,-5.2931,-5.2859,-5.2871,-5.2877,-5.2943,-5.2967,-5.2989,-5.2704,-5.2702,-5.2701,0,0,-5.2343,-5.2369,-5.2462,-5.2491,-5.2533,-5.2535,-5.2557,-5.259,-5.2598,-5.2697,-5.2657,-5.2717,-5.2823,-5.2853,-5.2882,-5.3053,-5.3019,-5.3072,-5.3167,-5.3236,-5.3256,-5.3274,-5.3336,-5.3358,-5.3086,-5.3086,-5.3086,0,-5.2422,-5.2528,-5.2512,-5.2594,-5.2629,-5.2583,-5.2676,-5.2704,-5.2763,-5.2788,-5.2746,-5.2879,-5.2901,-5.3025,-5.3067,-5.3092,-5.3116,-5.3069,-5.3254,-5.3272,-5.3289,-5.3348,-5.3371,-5.3092,-5.3092,-5.3091,-5.309,0,-5.2622,-5.2696,-5.2765,-5.2826,-5.2868,-5.2955,-5.2952,-5.2997,-5.298,-5.2985,-5.3087,-5.3113,-5.3175,-5.3203,-5.3186,-5.3325,-5.3301,-5.3257,-5.3183,-5.332,-5.3375,-5.3397,-5.3101,-5.3099,-5.3097,-5.3096,0,0,-5.2836,-5.2887,-5.2913,-5.294,-5.2984,-5.304,-5.3124,-5.3187,-5.3226,-5.3268,-5.3338,-5.3429,-5.3389,-5.3422,-5.3408,-5.3468,-5.3604,-5.3417,-5.3418,-5.3452,-5.3759,-5.3793,-5.3819,-5.3581,-5.3585,-5.3589,-5.3756,0,-5.2999,-5.3148,-5.3136,-5.3276,-5.3344,-5.3302,-5.3375,-5.3409,-5.3416,-5.3474,-5.3481,-5.3546,-5.3488,-5.3508,-5.3566,-5.3575,-5.3665,-5.3563,-5.3646,-5.3649,-5.3639,-5.3848,-5.3884,-5.4041,-5.3778,-5.3781,-5.3784,0,-5.3208,-5.326,-5.3407,-5.3442,-5.347,-5.3536,-5.3593,-5.3649,-5.3687,-5.3687,-5.3725,-5.3701,-5.3785,-5.3709,-5.3824,-5.3755,-5.3787,-5.3797,-5.3803,-5.3811,-5.3726,-5.3863,-5.409,-5.4114,-5.3817,-5.3815,-5.3812,0,-5.3352,-5.3457,-5.3559,-5.3583,-5.3626,-5.3674,-5.3693,-5.3727,-5.3765,-5.3814,-5.3839,-5.3896,-5.3928,-5.3972,-5.3964,-5.3909,-5.4082,-5.4004,-5.4085,-5.4085,-5.4124,-5.4122,-5.4362,-5.4144,-5.4143,-5.4143,-5.4142,0,-5.3535,-5.3627,-5.3624,-5.3687,-5.3789,-5.3775,-5.3875,-5.3889,-5.3919,-5.3984,-5.3949,-5.4009,-5.3994,-5.4054,-5.4048,-5.4145,-5.4159,-5.4162,-5.4159,-5.4166,-5.4166,-5.4188,-5.4178,-5.4149,-5.4148,-5.4146,-5.4145,0,-5.3712,-5.3714,-5.3823,-5.3855,-5.3865,-5.3939,-5.3965,-5.4024,-5.4029,-5.411,-5.4128,-5.4135,-5.4204,-5.42,-5.4277,-5.4273,-5.4393,-5.4377,-5.4381,-5.4378,-5.446,-5.4453,-5.4723,-5.4758,-5.4516,-5.4518,-5.452,0,-5.383,-5.39,-5.394,-5.3982,-5.4005,-5.4072,-5.4112,-5.41,-5.4142,-5.4191,-5.4244,-5.431,-5.4362,-5.4474,-5.4485,-5.4544,-5.4529,-5.462,-5.4538,-5.4543,-5.4532,-5.4529,-5.4536,-5.4636,-5.4639,-5.4641,-5.4643,0,-5.4039,-5.4037,-5.4096,-5.4157,-5.4206,-5.4252,-5.4294,-5.4329,-5.4322,-5.4371,-5.4442,-5.4483,-5.4562,-5.4628,-5.4685,-5.4703,-5.4673,-5.4669,-5.4691,-5.4699,-5.4699,-5.4702,-5.4427,-5.4663,-5.4661,-5.466,-5.4658,-5.4658,-5.4191,-5.4252,-5.4291,-5.4358,-5.4389,-5.443,-5.4487,-5.45,-5.4559,-5.4624,-5.4613,-5.4693,-5.4728,-5.4801,-5.4825,-5.4887,-5.4854,-5.4886,-5.4894,-5.4902,-5.4912,-5.4689,-5.4896,-5.4896,-5.4895,-5.4895,-5.4894,0,-5.44,-5.4423,-5.4485,-5.4547,-5.46,-5.4567,-5.4612,-5.4658,-5.473,-5.4766,-5.4819,-5.4901,-5.4965,-5.4981,-5.5042,-5.5088,-5.5075,-5.5104,-5.5102,-5.5107,-5.4937,-5.4913,-5.5114,-5.5114,-5.5114,-5.5114,-5.5114,-5.5114,-5.4515,-5.4617,-5.4619,-5.4736,-5.4757,-5.4837,-5.4866,-5.4903,-5.4932,-5.5026,-5.5079,-5.509,-5.5118,-5.5181,-5.5238,-5.5241,-5.5266,-5.5301,-5.5298,-5.514,-5.5118,-5.5097,-5.5074,-5.5306,-5.5306,-5.5463,-5.5464,-5.5465]}]]